GFSGL_850_rhum_114.txt.gz
RH
100 100 100 100 94 99 89 92 92 98 95 99 98 98 99 99 80 62 61 64 74 83 92 93 88 92 94 98 100 100 100 99 100 98 99 99 94 92 91 94 95 99 95
100 100 100 100 99 95 91 93 92 96 98 98 99 99 99 100 100 84 66 90 95 97 89 94 96 100 98 91 90 90 100 99 99 100 97 100 93 87 92 97 100 100 99
100 100 100 100 100 100 100 100 99 100 100 100 100 100 100 100 100 77 80 98 100 98 99 99 98 99 95 91 90 98 98 99 100 99 100 99 99 89 93 99 100 100 100
100 100 100 100 100 100 100 100 100 100 100 100 100 99 98 98 94 99 100 100 99 100 100 98 95 94 98 98 98 98 98 100 98 100 99 100 99 97 97 100 100 100 100
100 99 100 100 100 100 100 100 100 100 100 100 100 100 100 100 100 100 100 100 100 100 100 96 98 91 86 89 95 98 100 100 99 100 100 100 100 100 97 95 100 100 100
99 100 100 100 99 100 100 100 100 100 100 100 100 100 100 100 100 100 100 96 96 97 98 100 94 96 88 86 85 84 99 100 100 100 100 100 98 98 100 100 100 100 100
99 99 100 98 100 99 99 100 100 100 100 100 100 100 100 100 99 100 100 94 100 100 99 98 98 99 96 90 83 81 91 100 100 100 100 99 99 96 98 100 100 95 98
98 98 99 100 100 99 98 99 98 99 99 99 99 99 100 100 99 100 100 100 100 100 99 99 98 100 95 88 84 91 98 97 94 94 99 100 100 99 100 96 91 100 100
98 96 99 98 98 100 97 98 97 98 95 98 97 100 98 100 100 100 100 100 100 100 100 98 100 99 94 91 93 91 100 99 98 89 100 94 100 100 100 100 100 100 100
92 94 92 93 100 97 97 97 99 98 98 99 97 98 98 99 100 97 98 99 99 100 100 100 100 100 100 100 100 99 99 98 99 99 99 100 100 100 100 100 100 100 100
81 81 82 83 85 88 90 90 91 91 91 94 96 97 97 97 97 97 98 98 96 97 97 98 97 96 99 100 100 99 99 100 100 99 100 100 100 100 100 100 100 100 100
43 49 58 63 71 76 76 78 77 77 79 84 83 89 92 94 92 94 91 96 98 98 98 98 97 98 98 100 100 99 100 100 100 99 100 100 100 100 100 100 100 100 100
15 17 21 27 27 30 34 42 47 56 64 74 81 89 84 84 85 88 92 92 93 92 96 98 97 98 99 95 94 99 100 100 100 99 99 100 100 100 100 100 100 100 99
12 14 17 16 21 16 16 20 20 24 31 37 47 54 65 67 72 80 84 87 94 97 98 98 95 95 96 98 98 97 97 98 98 97 97 98 99 100 100 100 99 100 100
10 10 14 18 18 56 33 22 26 21 20 35 44 69 51 50 60 82 84 86 92 97 97 93 90 91 93 93 95 97 96 96 96 97 96 96 96 96 96 97 97 97 96
55 54 22 33 37 33 44 77 19 18 17 16 15 16 29 31 34 39 61 79 90 92 88 87 91 93 96 97 95 95 95 96 96 96 96 96 96 96 95 96 96 96 95
13 37 57 55 60 40 41 41 47 46 19 14 13 14 14 15 18 21 30 45 46 64 90 100 100 100 100 100 100 99 98 95 96 96 96 95 95 95 96 95 95 95 95
33 31 76 61 62 81 87 90 82 64 61 43 22 18 16 15 16 20 23 42 59 65 92 100 100 100 100 100 100 100 98 97 97 96 96 96 95 95 95 95 95 95 95
17 25 95 100 100 100 100 100 97 98 98 92 55 29 18 20 22 21 22 58 96 100 100 100 100 100 100 100 100 100 86 63 78 91 92 94 95 98 96 93 90 82 68
73 19 33 86 97 99 100 100 100 100 100 100 100 69 32 87 89 70 73 88 100 100 100 100 100 100 100 100 100 99 100 100 99 100 100 100 100 99 100 100 96 86 82
92 98 68 100 100 100 100 100 100 100 100 100 100 80 46 100 100 100 100 100 100 100 100 100 100 100 100 100 100 100 88 100 88 100 100 100 100 100 100 100 100 90 86
69 96 98 99 100 100 100 100 100 100 100 100 100 100 100 100 100 100 100 100 100 100 100 100 100 100 61 60 60 96 78 68 75 100 98 86 100 100 100 100 100 100 92
100 100 100 100 100 100 100 100 100 100 100 100 100 100 100 100 100 100 100 100 100 100 86 84 100 80 56 53 45 40 38 36 35 34 99 100 100 100 100 100 97 100 100
100 100 100 100 100 100 100 100 100 100 100 100 100 100 100 100 100 100 100 100 100 100 100 98 73 54 52 51 52 50 41 39 38 39 41 98 100 95 100 100 87 48 69
100 100 100 100 100 100 100 100 100 100 100 100 100 100 100 100 100 100 100 100 100 100 100 100 80 75 61 56 52 49 46 46 43 43 43 52 43 44 48 81 95 91 66
100 100 100 100 100 100 100 100 100 100 100 100 100 100 100 100 100 100 100 100 100 100 100 100 100 73 66 84 62 54 47 45 44 42 43 53 69 80 92 53 50 100 85

GFSGL_850_rhum_117.txt.gz
RH
100 100 99 99 99 99 98 81 76 84 84 89 92 88 94 99 99 100 94 66 92 89 68 89 75 97 94 88 88 90 94 96 99 87 93 94 91 99 91 82 86 88 91
100 98 100 100 100 100 100 91 90 86 85 90 95 94 94 100 100 100 99 100 81 90 75 66 92 89 98 97 94 91 95 99 100 99 94 95 89 92 90 89 88 88 92
97 100 100 100 100 99 100 95 83 91 95 100 96 93 99 99 100 99 98 98 99 84 67 74 99 95 96 97 98 99 98 97 99 99 95 95 98 99 96 94 88 88 94
99 100 100 100 100 100 100 87 99 100 100 87 95 99 100 100 100 100 100 100 93 85 98 100 97 100 100 99 99 97 98 98 93 100 100 96 98 98 100 99 98 91 93
99 99 100 100 100 100 100 100 100 100 100 100 100 100 100 100 100 100 100 100 100 100 99 100 99 99 94 91 90 86 91 98 99 99 100 99 99 100 98 100 99 97 99
99 98 100 100 100 100 100 100 100 100 100 100 100 100 100 100 100 100 100 100 100 100 100 100 98 97 93 94 93 95 90 90 88 97 98 100 99 99 100 99 99 100 100
98 98 97 99 98 100 100 100 99 99 100 100 100 100 100 100 100 100 100 100 100 100 100 100 100 99 99 100 99 95 90 86 84 92 98 100 100 100 100 100 100 100 99
98 99 98 96 99 99 99 99 97 100 100 98 100 100 100 100 100 100 100 100 97 100 100 100 100 98 99 99 99 92 94 88 98 100 100 99 98 96 100 100 99 100 100
90 93 93 96 95 96 96 98 97 98 99 97 100 100 99 99 97 100 98 98 99 100 100 98 100 100 100 100 100 100 100 100 100 96 93 87 91 94 97 100 100 100 100
82 84 84 82 81 85 92 96 97 98 99 98 98 99 99 100 96 99 96 96 99 98 99 100 97 94 96 100 99 99 99 100 100 100 99 98 99 92 90 89 98 100 100
30 31 38 46 54 61 64 67 73 79 78 87 90 91 94 97 98 99 98 98 98 99 98 97 97 98 96 96 99 100 99 99 100 100 98 99 100 98 89 96 99 100 100
16 13 12 12 13 13 13 15 16 22 31 49 68 75 80 84 83 80 89 94 94 93 94 97 97 97 99 99 98 98 98 100 99 100 100 99 99 99 99 100 100 99 100
13 12 14 14 9 7 7 7 8 10 12 17 17 26 27 29 52 77 88 91 91 97 100 100 97 95 95 95 98 98 97 98 99 97 97 98 99 98 99 99 100 100 100
20 39 46 29 47 21 11 9 7 8 9 12 25 17 18 17 20 28 46 69 84 89 95 96 96 96 92 91 89 92 96 98 98 96 96 97 99 96 97 96 98 99 100
74 66 84 86 80 95 87 66 40 24 17 18 18 29 17 15 24 24 33 43 78 90 96 92 88 88 89 90 94 92 93 95 98 99 98 97 97 97 97 97 96 96 97
82 81 66 89 90 91 94 99 100 82 50 20 17 18 31 21 16 15 18 24 28 40 78 94 100 100 100 100 100 100 100 96 97 99 100 100 99 97 96 96 96 96 95
83 93 91 91 95 96 97 96 97 99 100 80 27 17 16 14 13 15 22 84 62 48 87 100 100 100 100 100 100 100 100 100 100 100 100 100 100 98 95 95 96 96 95
51 89 100 100 100 100 100 100 100 100 100 100 96 31 20 83 64 29 22 69 92 96 98 100 100 100 100 100 100 100 100 100 100 99 98 99 100 100 99 97 95 95 96
68 54 100 100 100 100 100 100 99 98 97 97 98 91 31 89 100 100 100 99 100 100 100 98 100 100 100 100 100 100 100 100 100 100 98 97 99 99 99 97 96 95 95
100 78 98 100 100 100 98 97 95 96 95 95 97 100 93 99 100 100 100 100 100 100 100 100 100 100 100 100 100 100 100 100 100 100 100 100 99 100 100 100 100 97 89
100 100 99 98 97 99 98 94 94 94 93 92 95 100 98 100 100 100 100 100 100 100 100 100 100 100 100 100 100 100 100 100 100 100 100 99 100 100 100 100 100 95 87
100 99 94 94 97 100 100 96 98 100 98 98 99 99 94 100 100 100 100 100 100 100 100 100 100 100 100 100 100 100 100 100 100 100 100 100 100 100 100 100 100 100 91
100 100 98 92 100 99 100 100 100 100 100 100 100 100 100 100 100 100 100 100 100 100 100 100 100 100 100 100 100 100 100 92 100 67 94 100 100 97 100 100 100 100 100
100 100 100 99 99 100 100 100 100 97 100 100 100 100 100 100 100 100 100 100 100 100 100 100 100 100 82 67 95 98 49 46 43 60 87 100 100 100 100 100 100 100 100
100 100 100 100 100 100 100 100 100 100 100 100 100 100 100 100 100 100 100 100 100 100 100 100 100 100 100 93 74 58 54 48 49 48 74 100 100 100 77 100 99 100 96
100 100 100 100 100 100 100 100 100 100 100 100 100 100 100 100 100 100 99 99 100 100 100 100 100 100 100 100 100 87 72 60 53 47 55 100 100 100 100 100 86 100 100

GFSGL_850_rhum_120.txt.gz
RH
100 100 100 100 100 100 100 100 92 82 64 52 72 65 53 85 83 85 89 91 97 100 94 87 96 86 93 89 77 86 85 90 90 80 83 83 89 95 93 89 87 81 78
100 100 100 100 100 100 100 100 100 100 91 98 88 72 43 92 90 88 86 94 96 99 98 99 98 78 96 96 73 69 80 81 89 86 89 99 99 98 95 90 81 85 85
97 100 100 100 100 100 100 99 100 100 94 79 76 83 100 98 99 97 92 99 96 98 98 100 100 99 98 96 98 99 85 87 94 90 85 88 99 87 85 94 93 88 93
97 97 99 100 100 99 100 100 100 100 90 99 100 90 99 76 98 97 98 99 99 99 99 100 100 99 100 98 98 99 98 100 99 100 100 100 94 97 100 98 99 96 98
97 96 95 100 100 100 100 100 100 85 76 100 100 100 100 100 100 100 98 100 100 99 100 100 99 100 100 100 100 71 80 99 99 96 94 93 98 98 92 94 96 99 98
96 97 96 97 98 100 99 99 98 97 95 99 100 100 100 100 100 100 100 100 100 100 100 100 100 100 100 100 100 99 100 94 88 85 82 86 88 100 99 98 98 99 100
97 97 97 97 98 98 100 100 98 100 100 100 99 99 100 100 100 100 100 99 100 100 100 100 100 100 100 100 99 95 97 96 92 88 84 89 90 100 99 98 99 100 99
87 88 95 97 98 98 97 100 91 98 99 99 98 99 99 99 100 99 99 96 99 98 100 98 99 99 99 100 100 100 100 99 97 99 100 99 99 100 100 100 100 100 100
47 56 64 72 78 86 96 98 96 97 98 98 100 95 100 95 100 92 96 96 98 95 98 100 97 98 96 97 100 100 100 100 99 99 100 100 100 98 90 89 96 100 98
23 20 16 18 20 37 60 67 80 92 95 93 99 93 99 97 99 99 100 97 97 95 97 99 94 97 100 98 97 99 100 100 100 100 100 99 99 100 99 98 93 93 100
18 12 9 7 8 11 12 14 14 17 23 34 48 70 86 92 94 96 94 95 97 97 97 97 95 97 97 97 98 99 99 100 99 100 100 99 100 100 100 99 96 97 100
27 20 20 14 7 6 5 5 5 7 7 8 8 11 17 27 47 71 83 90 89 91 93 94 93 97 96 96 95 97 98 98 97 98 99 99 99 98 99 99 99 100 100
37 40 33 31 26 17 9 7 5 5 5 6 7 7 8 8 10 19 38 61 76 88 97 95 96 93 92 91 92 93 94 96 94 94 97 97 98 99 99 96 99 99 99
50 78 77 75 68 53 34 26 15 14 10 8 10 12 11 9 8 10 13 14 22 41 71 85 91 95 96 95 90 90 92 96 100 100 100 99 98 96 96 96 95 98 100
83 62 87 94 91 100 96 92 78 81 71 42 34 30 27 20 34 34 58 33 42 76 52 40 48 70 84 91 96 99 94 94 95 100 100 97 95 94 95 98 96 100 96
77 87 65 76 84 93 94 99 100 100 100 93 73 54 85 98 59 22 70 90 47 52 45 63 74 80 89 92 92 94 95 96 97 99 99 100 100 95 94 96 97 95 95
55 91 92 70 83 87 91 91 91 88 100 100 97 65 53 100 100 88 52 98 87 63 83 83 88 93 96 99 88 99 100 98 96 99 95 96 97 97 94 94 95 97 97
22 52 90 87 79 96 93 91 90 90 91 88 97 72 46 96 100 100 95 49 68 77 96 100 97 94 97 99 99 96 100 95 96 97 95 96 97 98 95 95 96 96 96
69 45 85 95 85 79 92 87 84 85 91 87 90 64 54 72 100 100 98 70 92 98 97 97 100 97 98 99 100 96 100 100 97 100 99 94 97 100 96 96 96 95 96
97 87 88 90 92 90 86 87 86 84 86 86 90 94 83 73 89 89 95 91 94 100 98 100 100 100 99 97 100 100 100 100 97 99 97 96 98 98 100 98 90 92 81
94 92 88 90 94 86 94 91 91 88 87 83 84 87 84 92 95 93 95 94 98 100 100 98 100 100 100 100 100 99 100 100 92 99 100 97 100 95 97 100 96 89 89
94 91 92 96 94 93 95 96 86 92 91 90 90 91 89 88 87 89 93 96 94 96 100 100 100 99 95 96 100 100 88 85 77 72 100 100 100 100 100 95 100 100 95
93 90 89 94 92 89 90 93 87 95 94 91 89 88 88 86 87 87 93 94 99 93 93 100 99 100 98 87 87 86 64 50 52 59 94 100 100 100 100 100 96 99 96
95 89 91 92 89 90 92 88 93 92 94 89 92 96 93 92 90 86 85 95 100 94 94 95 95 100 99 99 90 80 70 54 51 53 87 94 99 99 100 100 98 99 91
91 89 92 92 93 93 93 93 90 90 92 86 88 84 88 96 94 96 91 84 90 96 100 91 98 100 100 100 100 100 97 81 61 55 88 100 100 100 94 93 100 100 88
94 98 94 94 91 95 95 88 92 92 93 95 93 92 90 83 80 97 100 95 80 77 81 93 100 100 98 97 100 100 99 84 75 65 72 77 89 99 100 97 100 100 97

GFSGL_850_rhum_123.txt.gz
RH
96 99 99 100 100 100 100 99 98 99 89 79 75 72 61 56 74 61 73 75 96 90 86 80 87 96 100 97 95 93 71 78 80 63 64 72 81 86 84 83 82 87 87
98 98 99 100 100 100 100 100 100 100 97 98 100 100 84 90 76 75 63 53 53 81 85 81 79 92 99 100 99 76 78 75 72 68 74 80 84 81 92 97 96 94 86
97 97 97 99 100 100 100 100 100 100 100 100 99 100 89 99 83 61 58 61 83 92 100 95 76 87 95 100 100 82 78 77 73 78 70 62 82 81 91 94 95 93 93
96 97 97 96 100 100 100 100 100 100 100 100 100 100 100 100 99 73 61 64 72 95 99 99 99 96 98 99 99 100 89 84 81 81 84 88 83 89 98 94 92 100 99
97 96 97 97 96 100 100 100 100 99 99 100 100 100 100 100 100 100 99 100 100 99 100 100 100 100 99 98 99 99 100 98 94 78 66 90 100 93 97 87 97 92 89
97 97 97 97 98 95 97 99 100 100 100 100 98 99 100 99 100 100 100 98 100 100 100 99 99 100 100 100 100 100 100 100 100 93 99 100 96 94 93 95 100 100 99
77 93 97 97 97 97 97 98 99 98 99 98 99 98 90 97 98 99 99 92 100 100 100 100 99 100 100 100 100 100 100 100 99 100 95 90 88 86 85 91 99 100 100
17 26 55 73 92 97 97 97 98 98 96 97 97 99 98 99 99 97 98 100 99 96 97 98 98 98 100 99 100 100 99 100 98 100 100 100 98 100 100 99 99 99 99
11 9 12 15 17 31 44 58 75 94 97 100 100 99 98 99 100 99 99 98 98 98 98 95 95 98 99 99 96 98 98 98 100 97 100 100 99 100 100 100 98 97 96
29 16 9 9 9 13 12 11 12 12 15 20 34 59 86 92 95 96 99 98 96 98 100 99 98 97 95 100 96 95 96 98 100 100 98 99 98 99 100 99 100 100 100
40 32 19 11 8 6 6 6 6 5 5 6 7 9 12 16 26 35 52 79 94 94 91 92 92 93 96 95 96 97 99 98 97 98 99 100 99 100 100 100 99 100 100
36 32 36 25 17 11 7 5 5 5 5 5 5 6 8 11 13 15 16 22 43 77 92 96 94 91 92 96 94 96 94 95 94 95 97 97 98 98 98 98 97 98 99
37 48 42 40 29 20 16 14 10 8 6 7 7 7 8 10 13 24 24 24 20 35 60 86 87 85 86 85 88 89 88 90 89 88 91 92 94 95 98 96 96 97 98
49 54 62 65 66 63 56 53 39 44 35 17 16 24 26 14 15 50 44 26 27 30 31 35 37 42 50 70 78 85 89 91 92 92 93 93 94 90 90 91 92 96 100
86 73 80 86 88 98 100 100 95 100 89 70 49 72 96 91 98 100 81 47 42 40 30 26 26 28 35 40 45 64 84 88 88 91 92 92 90 90 91 94 95 95 93
47 55 51 57 70 76 80 85 99 99 100 100 67 69 100 100 100 85 87 79 54 44 27 34 45 59 67 70 74 78 74 82 94 94 92 92 91 90 90 93 97 95 94
56 73 59 53 68 78 76 72 81 82 93 100 81 72 100 100 100 100 53 42 39 32 34 59 68 70 76 80 84 92 96 93 92 90 96 100 96 93 91 90 93 97 97
34 51 59 52 50 59 71 78 72 69 68 77 64 64 81 100 100 100 74 38 31 43 71 90 97 74 67 75 88 93 92 92 91 92 88 99 99 100 96 92 90 93 95
50 51 58 53 52 61 71 74 74 71 71 67 62 50 59 76 76 79 82 75 71 68 72 73 90 89 87 75 71 77 89 86 93 97 94 96 100 99 100 96 96 88 95
77 83 89 85 80 71 80 76 74 78 76 76 75 76 70 59 66 76 84 89 90 88 82 85 82 77 78 78 71 68 71 72 66 82 98 100 99 100 100 100 95 92 82
82 84 99 100 90 85 87 89 81 90 89 85 81 76 74 76 76 80 81 85 87 91 86 86 90 80 81 78 61 55 58 58 54 65 100 100 100 100 100 100 100 91 90
86 85 87 96 94 86 90 96 94 100 100 100 96 97 95 87 82 78 78 77 80 86 86 84 88 85 87 84 75 66 54 48 45 50 97 100 99 100 100 100 99 99 96
95 88 87 87 85 85 87 88 91 91 96 97 88 94 98 98 100 96 92 85 77 66 70 79 85 86 92 86 80 78 76 68 54 53 74 100 100 100 100 100 95 90 92
92 87 87 87 91 90 90 96 92 87 94 99 100 100 96 87 88 86 100 100 100 94 70 68 71 78 89 96 88 86 86 86 71 61 96 99 92 98 100 100 100 98 98
88 90 90 89 92 93 95 92 90 98 92 92 100 100 100 100 100 90 84 86 92 100 100 89 75 71 81 91 92 84 90 89 80 70 68 100 99 100 100 100 100 97 86
85 82 81 85 90 94 94 91 99 100 96 99 100 100 100 100 100 100 98 96 100 98 100 100 97 87 78 81 91 91 90 86 85 77 78 80 78 90 100 100 100 100 97

GFSGL_850_rhum_129.txt.gz
RH
92 96 93 96 97 98 99 100 100 100 100 100 100 99 98 99 100 98 83 69 58 50 51 73 83 73 66 82 78 99 84 94 100 89 73 76 71 71 69 64 61 66 76
97 96 95 95 97 96 97 100 100 100 100 100 100 100 99 99 99 97 99 99 94 92 83 72 78 71 71 81 84 79 81 92 99 95 74 71 78 73 68 64 66 68 76
95 96 96 95 96 96 97 100 100 100 100 100 100 100 100 100 100 99 99 99 100 100 96 99 94 77 100 100 98 84 76 75 86 87 82 90 75 81 75 66 71 72 72
96 96 96 95 96 96 97 97 100 100 100 100 100 100 100 100 100 100 100 100 100 98 98 100 100 100 100 99 100 97 74 68 68 87 72 83 93 91 80 70 71 70 64
90 97 97 97 97 97 97 100 100 100 100 100 100 99 100 100 100 100 100 100 100 100 98 99 100 99 100 96 93 94 100 100 89 98 100 99 92 100 96 79 80 72 71
13 23 54 84 95 98 98 97 96 98 99 94 94 98 96 100 99 100 100 100 100 100 100 100 100 100 100 96 100 98 98 99 100 99 100 100 100 100 100 96 89 86 99
8 10 11 12 13 20 39 58 74 82 88 89 91 95 97 97 98 98 100 100 100 100 100 100 100 100 100 100 100 100 100 99 100 100 98 99 99 99 100 100 100 100 100
6 7 8 8 9 8 9 9 10 11 13 17 31 59 84 99 99 98 98 98 98 98 99 100 100 100 100 99 100 100 100 99 93 95 98 96 98 100 100 100 100 100 100
10 9 8 8 8 7 7 10 11 10 9 11 14 16 14 28 36 67 93 96 96 96 96 98 98 96 99 99 100 99 99 99 100 99 99 100 93 96 94 95 95 100 100
21 22 15 9 7 8 9 8 12 13 16 14 13 17 23 18 14 13 14 16 26 58 84 90 93 96 98 98 98 98 98 99 99 100 98 100 99 98 100 93 98 100 99
30 31 25 17 13 11 11 11 12 11 10 13 16 17 14 21 35 20 17 15 18 18 19 27 68 93 91 89 92 92 97 100 95 96 96 97 98 98 99 99 98 98 99
27 29 30 28 25 15 12 12 12 13 16 18 14 16 18 19 18 16 18 19 20 18 20 27 29 30 56 82 85 86 85 83 81 85 86 83 83 84 87 90 93 97 96
27 28 29 27 24 26 21 19 22 25 32 36 37 26 18 16 14 13 14 15 15 15 20 23 18 17 18 17 22 32 41 53 69 72 81 84 84 82 81 80 86 88 90
22 22 24 26 40 41 43 33 26 46 55 50 51 55 44 30 24 15 14 14 14 14 14 13 12 13 14 15 16 20 26 35 47 62 76 79 76 73 73 75 76 77 79
19 25 31 37 39 43 53 74 55 66 92 86 87 84 87 84 82 38 25 18 17 16 13 10 9 10 11 13 17 20 23 25 28 38 39 45 55 59 67 73 75 76 81
18 23 26 26 28 35 40 44 60 88 100 100 100 93 90 100 99 48 33 28 26 21 14 17 18 18 18 18 18 19 22 26 33 42 47 53 62 66 68 69 72 76 81
19 26 29 36 42 48 58 57 56 55 51 58 64 100 100 100 98 46 39 34 27 22 26 36 38 36 31 26 23 22 22 24 27 30 44 60 66 76 76 76 75 69 66
30 40 45 51 61 57 58 59 57 54 57 59 58 64 88 92 62 53 49 34 32 35 40 41 44 48 49 44 37 32 29 25 23 24 33 59 74 83 82 83 87 91 88
48 54 60 63 58 55 56 58 56 62 64 67 67 62 70 76 70 68 64 64 68 62 58 55 48 47 52 54 53 46 40 39 35 31 31 49 75 82 85 88 88 87 94
35 54 49 45 44 48 58 62 63 67 67 70 68 64 65 68 63 66 70 75 92 82 82 84 76 65 53 50 50 52 53 46 42 41 35 41 69 91 92 92 91 91 90
38 35 36 42 39 46 53 50 54 55 54 58 68 76 78 74 70 68 67 71 86 92 79 82 86 85 73 61 56 57 58 61 58 52 46 43 59 76 88 94 96 96 92
30 33 39 38 40 46 54 54 65 67 52 57 68 71 72 75 77 82 82 80 81 86 84 80 87 100 91 77 65 61 62 63 65 64 58 48 48 73 84 85 88 92 95
33 41 45 50 44 47 49 60 71 63 62 67 69 70 69 74 81 85 84 83 82 84 83 78 94 100 98 94 79 75 70 74 72 74 71 69 62 57 69 82 90 94 97
39 48 49 50 43 38 42 51 53 46 38 36 44 53 58 56 59 62 61 62 63 70 91 98 100 100 100 96 95 98 85 84 79 77 80 83 80 78 70 71 77 93 100
44 48 50 42 30 29 33 38 37 31 30 34 37 40 45 53 52 47 49 53 56 60 64 73 94 100 100 100 98 99 100 100 95 85 82 87 88 93 95 83 90 98 100
51 52 45 30 26 27 30 31 31 31 33 35 38 42 45 47 48 49 52 54 56 58 62 62 64 66 74 94 100 100 100 100 100 94 87 90 97 98 96 93 97 100 100

GFSGL_850_rhum_132.txt.gz
RH
93 96 96 95 96 96 96 96 97 98 99 100 100 100 100 100 99 99 99 100 97 75 58 52 57 74 74 83 74 70 83 80 98 84 81 61 68 80 80 72 68 65 60
94 96 95 96 95 95 96 96 97 97 99 100 100 100 100 100 100 100 99 100 100 99 99 93 90 54 51 70 71 71 78 84 91 95 70 71 58 61 78 74 78 69 69
95 97 96 95 96 95 96 96 97 99 99 100 100 100 100 100 100 100 100 100 100 100 100 100 98 99 100 100 76 78 84 87 99 100 79 73 73 83 76 62 67 73 67
72 96 95 95 96 96 96 96 96 96 97 100 100 100 100 100 100 100 100 100 100 100 100 100 94 98 94 100 100 100 96 98 100 99 92 100 88 76 69 61 71 72 67
13 17 40 81 93 96 98 98 97 97 98 98 100 100 100 100 100 100 100 100 100 100 100 100 100 100 100 99 98 99 100 100 99 100 100 100 100 99 82 64 63 75 74
8 10 11 14 14 20 30 44 63 80 94 96 98 98 98 100 100 100 100 98 99 100 99 99 100 100 100 100 100 100 100 100 100 100 100 100 100 100 100 97 100 100 100
8 7 7 9 11 13 16 17 16 16 19 28 50 81 98 100 100 100 99 98 97 98 99 100 99 100 100 100 100 100 100 100 100 100 100 100 99 100 98 100 96 100 99
7 6 7 8 10 11 11 13 13 13 11 11 14 15 18 25 44 74 89 92 94 95 96 97 98 96 98 99 100 99 100 100 99 100 100 100 100 99 100 100 99 100 100
10 8 7 8 10 10 9 12 11 9 8 8 9 8 8 10 10 11 10 11 21 40 67 81 94 96 97 98 96 96 98 97 98 100 99 100 98 100 96 98 100 97 99
14 11 10 10 11 13 17 13 12 12 10 8 7 6 6 5 6 5 6 6 6 8 11 15 46 86 93 95 94 96 96 96 96 97 97 99 99 99 99 100 100 100 98
19 13 14 12 11 11 14 13 15 14 10 8 8 8 8 7 7 6 6 6 8 9 9 12 14 16 18 47 71 86 94 93 91 94 95 96 96 96 96 96 97 97 97
14 11 15 18 15 11 10 13 12 11 13 15 11 9 10 10 10 10 10 10 9 7 9 11 14 14 14 13 14 21 25 28 36 50 63 75 76 78 85 90 94 95 96
13 10 10 13 14 12 10 11 15 17 14 19 20 17 15 15 12 13 13 14 13 12 13 13 11 9 9 9 12 12 10 12 15 18 30 45 62 70 65 70 82 92 95
16 15 15 15 19 16 15 16 17 35 33 27 24 31 26 18 18 16 14 13 14 14 13 12 12 12 12 11 10 10 11 13 18 23 31 36 37 33 36 44 51 56 61
18 15 17 19 20 22 19 26 38 50 65 58 59 48 56 59 76 41 20 16 17 16 14 12 10 12 13 16 16 16 15 14 14 17 19 21 26 30 37 39 40 38 49
16 18 20 22 23 25 28 28 33 55 73 92 100 88 79 100 87 36 31 24 21 17 12 15 19 23 26 29 28 27 24 22 21 21 23 28 36 39 42 47 50 53 53
21 22 22 24 28 33 38 38 41 45 45 51 58 100 100 100 99 52 43 37 28 24 24 30 31 30 33 36 38 39 37 33 29 24 24 30 40 52 58 62 61 60 58
24 20 23 25 39 51 52 53 56 58 54 52 53 57 78 100 73 50 50 49 44 49 55 58 58 52 44 42 40 40 42 43 41 34 29 27 29 46 60 71 78 78 73
29 28 31 36 42 47 51 57 57 56 47 45 50 54 67 75 67 57 59 60 73 75 76 76 80 77 69 59 51 47 43 40 42 47 43 36 35 39 48 66 72 78 78
28 35 40 40 37 37 46 45 40 42 38 40 48 52 58 54 44 53 63 71 78 86 85 84 90 96 91 80 69 59 54 49 47 50 56 53 43 41 56 65 70 74 79
36 35 36 41 34 32 39 38 34 33 30 38 43 44 42 39 44 48 53 64 73 79 81 82 82 98 100 94 86 75 67 59 54 56 60 65 63 55 49 57 71 77 79
33 35 41 42 38 30 27 28 25 22 22 22 24 27 29 35 36 37 41 47 54 64 73 79 86 98 100 100 100 89 83 73 65 61 64 64 70 70 63 59 61 70 79
33 35 40 41 29 26 24 21 21 22 23 24 24 27 30 31 34 36 38 41 44 46 50 57 66 78 92 100 100 100 99 95 85 78 75 70 71 78 76 76 75 69 76
31 32 36 36 31 22 18 20 23 24 24 25 27 31 34 35 36 39 41 43 45 48 52 55 55 57 59 80 99 100 100 100 98 91 88 80 79 88 89 87 85 85 92
38 37 41 36 24 20 21 24 24 24 25 27 30 33 36 40 43 46 49 53 56 58 57 56 55 54 55 56 61 79 100 100 100 93 90 81 80 90 94 94 94 93 96
42 41 34 23 21 21 24 24 24 26 28 29 33 38 43 47 48 52 58 60 60 59 59 57 57 59 60 59 61 65 84 100 100 100 95 81 78 89 92 93 94 97 98

GFSGL_850_rhum_135.txt.gz
RH
90 91 94 95 96 96 96 96 96 96 96 97 97 99 100 100 100 100 100 100 100 98 100 87 76 71 76 99 80 97 93 83 85 94 92 67 79 72 46 49 67 63 67
90 94 95 97 96 96 96 96 96 96 96 97 98 99 100 100 100 100 100 100 100 100 100 100 100 71 94 86 92 96 98 97 95 88 95 83 71 61 69 80 81 55 70
62 89 97 97 96 96 96 96 96 96 96 96 97 99 100 100 100 100 100 100 100 100 100 100 100 99 96 99 98 100 100 97 93 99 95 90 98 97 97 96 75 58 78
11 15 33 59 85 94 96 96 96 97 95 96 97 97 98 100 100 100 100 100 100 100 100 100 99 100 100 97 100 98 100 100 100 100 99 98 99 99 93 99 85 80 80
8 11 14 14 14 18 36 75 92 95 98 100 98 96 95 97 98 100 100 100 100 100 99 100 99 100 100 100 98 99 100 100 100 100 100 100 100 100 100 100 99 97 94
7 8 11 12 10 10 11 12 13 18 33 65 84 92 93 97 100 98 98 98 99 100 98 99 100 99 98 99 100 99 100 100 100 100 100 100 100 100 100 100 100 96 100
8 10 9 10 10 9 9 8 10 11 9 11 11 13 18 39 64 82 91 89 90 98 100 100 98 98 99 99 98 99 99 99 100 100 100 100 98 100 98 99 100 100 99
9 10 12 10 9 10 8 9 9 9 11 11 13 9 10 13 13 12 12 14 24 43 61 74 83 94 100 100 94 88 92 94 96 98 100 100 100 100 98 99 100 100 96
10 10 10 11 12 12 9 9 10 8 8 9 10 11 9 10 8 7 6 6 7 7 7 9 12 18 49 73 86 97 97 95 95 97 97 98 98 100 99 100 99 99 100
14 13 11 11 11 11 13 11 11 8 8 8 7 7 8 7 7 7 6 6 6 6 6 8 9 9 8 6 11 24 42 70 82 90 95 97 97 95 93 92 96 98 100
16 17 12 9 10 11 10 11 13 12 9 7 6 6 6 7 7 6 6 6 7 7 7 8 9 8 7 7 8 11 15 16 18 22 31 48 66 83 90 94 90 96 96
18 15 12 10 9 11 11 12 11 11 11 12 11 12 12 10 9 8 8 9 10 8 10 11 11 9 8 7 7 9 9 9 10 12 13 17 21 29 59 72 78 89 95
17 13 12 10 9 10 10 12 15 12 11 20 27 41 50 31 15 12 12 12 12 12 14 14 12 11 10 9 9 8 7 8 8 9 13 18 21 24 22 23 38 73 81
16 13 11 9 11 11 11 14 17 23 25 29 58 56 58 42 32 24 12 11 11 11 11 11 11 12 12 12 12 12 13 13 12 12 14 16 18 18 19 19 17 18 19
17 14 13 13 13 13 15 22 35 63 86 94 71 88 86 85 68 39 20 15 15 13 12 11 11 12 13 15 17 18 19 19 18 18 17 16 16 17 22 28 33 32 38
17 17 18 20 22 22 23 23 21 25 35 63 99 96 100 100 100 87 37 25 18 17 15 17 21 24 25 26 25 26 26 27 32 30 26 24 23 26 29 36 36 38 55
20 18 18 21 23 24 25 24 23 28 26 25 24 64 100 90 93 75 33 31 24 22 31 47 53 56 75 58 44 39 36 34 33 35 40 38 31 30 40 78 99 70 70
17 16 20 22 26 29 27 25 27 25 24 28 34 41 43 46 44 36 30 30 34 46 96 100 100 100 100 99 63 54 49 46 40 38 41 44 44 52 98 100 100 99 100
22 22 24 24 28 31 28 29 28 25 25 30 34 34 35 42 45 37 32 29 38 44 50 72 94 100 100 100 94 74 80 59 53 49 46 47 51 61 90 96 100 100 100
26 23 29 32 32 33 29 29 27 24 23 25 26 25 26 28 27 30 32 34 36 39 44 58 62 72 87 96 100 100 100 100 73 65 59 55 53 68 95 100 100 100 100
35 36 37 38 32 29 25 26 24 24 26 27 23 23 24 30 31 31 32 33 34 35 37 40 47 65 78 92 99 100 99 98 89 77 70 64 59 75 97 100 100 100 100
36 40 39 38 31 28 24 23 21 22 23 24 25 26 26 30 31 32 34 36 38 40 42 44 47 51 55 65 88 100 100 100 100 94 81 74 65 92 90 100 100 100 100
36 40 40 40 35 27 24 21 21 21 22 24 25 26 28 30 33 35 37 39 42 45 48 51 51 50 52 55 61 68 93 100 100 100 95 87 72 72 84 100 100 100 100
39 42 42 41 36 26 22 21 22 22 24 26 27 30 32 34 36 38 39 42 46 51 54 55 55 55 55 57 58 60 64 74 100 100 100 98 78 68 71 82 100 100 100
47 45 44 40 29 22 21 22 23 24 26 29 31 34 36 39 40 40 42 45 50 54 54 52 49 49 50 56 61 63 68 74 88 100 100 99 80 68 70 82 93 100 100
54 44 39 29 23 22 23 24 25 27 30 32 34 36 39 40 41 42 44 49 54 56 55 51 50 51 54 59 62 64 75 79 92 100 100 98 80 71 73 84 94 100 100

GFSGL_850_rhum_141.txt.gz
RH
16 61 39 66 89 93 95 96 96 96 99 98 96 96 97 97 98 98 99 100 100 100 100 100 100 100 100 99 97 96 92 98 100 82 99 80 84 94 82 72 72 90 89
8 11 13 14 30 85 94 93 95 95 96 96 97 96 97 96 97 97 98 99 100 100 100 100 100 100 100 99 93 98 99 100 100 86 86 91 91 82 80 78 86 60 86
7 8 10 11 12 21 29 64 93 98 96 96 96 96 96 96 96 97 97 97 98 99 100 100 100 100 100 100 99 96 99 99 96 92 70 68 94 100 98 94 99 90 79
6 8 8 8 12 22 35 63 84 64 93 90 93 97 96 96 96 96 97 97 97 97 99 99 100 100 100 100 100 98 99 100 100 100 97 91 98 99 100 98 98 100 99
6 7 7 7 9 13 23 29 77 42 38 74 33 34 69 90 97 97 97 97 97 97 97 97 96 97 100 100 100 100 100 100 99 99 98 99 100 90 97 99 100 96 99
7 8 7 7 8 10 12 23 18 36 22 26 35 21 17 21 16 20 29 45 65 84 92 97 98 96 96 97 100 100 100 99 99 99 100 100 98 98 96 100 98 99 96
10 9 8 8 9 10 12 16 21 17 17 17 20 21 20 29 55 20 9 6 6 6 6 9 30 68 85 96 96 94 88 92 98 99 98 98 91 91 91 98 97 96 98
18 11 10 8 10 14 15 19 30 22 19 13 10 8 8 7 11 34 20 10 6 5 5 5 5 5 8 16 30 46 69 89 94 95 98 99 97 91 87 90 100 100 100
31 27 24 10 12 17 24 29 41 50 46 22 8 6 6 5 6 19 65 43 30 9 6 5 4 4 4 5 5 8 15 22 35 38 38 42 47 64 78 83 85 93 98
17 37 21 26 17 16 53 56 41 78 85 97 64 14 6 5 5 5 12 57 41 57 14 10 8 7 5 4 4 6 9 21 16 14 13 12 14 13 15 25 34 53 97
10 12 12 13 17 22 73 99 96 98 94 95 99 87 33 8 6 6 6 10 26 30 18 11 10 7 6 5 5 6 21 19 20 22 22 16 12 13 14 15 25 72 56
10 10 11 14 17 30 58 84 93 100 99 99 99 100 100 93 14 9 8 8 22 29 40 36 22 14 8 7 6 7 7 11 13 13 12 20 36 41 44 39 38 65 89
10 10 10 18 35 73 98 100 100 100 100 100 100 100 100 100 100 73 16 16 32 78 57 49 52 34 32 20 13 10 11 15 27 34 47 51 68 53 79 60 68 60 97
12 12 17 46 83 93 100 98 100 100 100 100 100 100 100 100 94 84 94 100 100 100 100 100 100 99 96 94 68 42 33 67 86 98 97 85 86 85 84 80 87 86 90
15 19 35 61 68 33 39 88 96 42 64 100 100 100 98 100 92 80 78 73 94 100 100 100 100 100 100 100 100 99 97 96 99 98 100 100 99 96 93 90 90 92 88
35 57 90 94 96 99 97 41 18 20 15 14 16 36 94 22 17 16 22 63 52 98 100 100 100 100 99 97 99 100 100 100 100 100 100 100 100 99 97 92 91 94 90
66 76 75 89 89 89 89 92 100 77 77 48 15 13 13 14 13 12 16 89 79 89 100 100 100 100 98 93 97 99 100 100 100 100 100 100 100 100 98 94 93 96 93
72 66 88 94 98 99 100 100 100 100 100 100 68 34 17 15 15 14 16 88 97 95 94 95 100 100 97 95 100 100 100 100 100 100 100 100 100 100 100 99 98 98 96
28 49 97 100 99 92 98 100 100 100 100 100 100 100 64 60 84 90 67 94 100 100 99 96 100 100 100 100 100 100 100 100 100 100 100 100 100 100 100 100 100 96 94
44 47 68 76 47 99 100 100 100 100 100 100 100 29 18 100 100 100 100 100 100 100 100 100 100 100 100 100 100 100 100 100 100 100 100 100 100 100 100 100 100 99 96
46 25 63 99 100 99 99 100 94 98 98 96 100 38 20 54 100 100 100 100 100 100 100 100 100 100 100 100 100 100 100 100 100 100 100 100 100 100 100 100 100 99 98
94 56 62 100 89 59 92 64 70 72 70 94 100 82 39 100 100 100 100 100 100 100 100 100 99 100 100 95 87 100 100 100 100 100 100 100 100 100 100 100 100 99 100
100 99 98 96 96 54 37 48 74 97 98 89 90 100 100 100 100 100 100 96 82 66 76 56 53 66 71 47 55 80 100 100 100 100 100 100 100 100 100 100 100 100 100
100 100 100 100 97 93 99 100 95 38 40 60 100 100 100 100 100 100 100 73 47 43 47 49 53 53 49 48 49 55 100 86 67 73 91 100 100 100 100 100 100 100 100
100 100 100 100 73 90 68 92 100 97 94 80 95 100 100 100 100 99 82 48 43 43 45 50 52 53 52 52 57 66 59 62 76 100 96 100 100 100 100 100 100 100 100
100 100 100 100 100 100 100 100 100 92 59 82 73 84 84 91 95 54 57 48 47 46 46 50 53 54 54 58 91 61 61 68 88 100 100 100 100 100 100 100 100 100 100

GFSGL_850_rhum_147.txt.gz
RH
6 6 6 5 7 10 17 22 35 60 83 92 96 96 95 96 97 96 97 97 98 98 98 98 99 100 100 100 100 100 100 100 100 98 83 98 100 87 79 75 74 70 88
6 5 4 5 6 8 15 18 16 22 25 78 88 91 95 96 96 96 96 97 97 97 96 96 98 98 99 100 100 100 100 100 100 99 99 99 100 100 91 92 97 90 94
5 5 4 4 7 8 14 12 11 13 11 16 37 51 43 63 91 96 96 96 96 96 95 94 96 97 99 100 100 100 100 100 100 99 100 100 100 99 89 95 100 99 86
5 5 4 4 6 8 10 11 8 10 9 12 17 16 16 14 12 14 55 90 96 96 96 95 96 96 96 99 100 100 100 100 100 100 100 100 100 100 97 98 100 100 100
5 5 5 5 6 8 9 10 7 7 8 11 18 19 18 40 15 10 8 8 17 54 81 88 94 96 96 96 97 99 100 100 100 100 99 100 98 98 99 100 100 100 100
6 6 5 6 6 7 10 9 5 5 6 7 10 14 22 83 62 12 9 6 6 8 15 24 30 37 38 59 82 94 96 97 97 94 91 96 99 100 100 100 100 97 96
9 7 6 6 6 9 12 9 5 5 6 5 6 8 14 45 88 21 12 9 7 7 8 9 17 29 27 26 30 22 28 32 31 38 43 51 51 83 87 96 99 100 67
15 11 8 6 7 13 14 11 12 10 8 7 6 7 7 20 15 15 12 11 12 12 13 11 9 16 21 18 16 16 18 19 28 25 29 22 24 31 34 46 91 98 89
24 22 14 10 10 14 15 21 28 35 32 20 16 8 7 10 14 13 13 14 13 16 28 58 19 12 17 17 11 14 18 26 26 29 26 22 18 15 17 16 14 16 24
28 21 21 17 20 20 26 37 51 58 69 43 27 18 12 11 12 13 16 18 17 24 30 31 54 24 12 10 11 16 16 22 18 16 14 16 18 24 27 35 50 49 47
20 21 19 20 24 30 43 57 73 84 88 75 51 26 18 14 29 34 41 32 45 51 56 66 92 100 46 19 18 20 30 24 18 16 16 16 17 21 32 77 92 89 86
15 15 14 16 24 34 51 82 89 96 100 90 64 33 16 13 9 11 21 30 55 62 81 85 81 77 66 36 30 28 22 18 17 16 14 17 19 27 34 37 57 77 85
11 12 13 21 37 40 53 62 76 87 88 78 52 27 15 13 11 15 40 67 72 75 83 85 95 59 48 38 33 29 22 20 22 21 28 40 46 49 35 21 23 26 35
11 12 18 30 37 41 56 71 69 62 52 43 26 15 13 11 12 16 38 59 75 70 68 58 60 58 54 47 39 35 35 33 33 40 38 37 35 32 35 33 28 23 21
13 18 30 36 48 50 37 23 39 17 25 23 16 13 11 10 16 31 48 50 68 65 51 35 30 29 28 29 29 31 35 36 40 48 43 40 39 43 58 54 49 43 45
14 22 31 41 34 37 16 19 24 20 12 11 11 11 12 12 13 59 99 75 46 40 30 26 33 37 34 40 36 38 39 45 54 55 58 58 55 49 58 60 58 64 66
17 24 37 55 67 67 71 78 71 66 68 52 33 20 15 24 34 43 70 41 32 33 24 34 38 45 43 43 42 46 51 64 68 69 78 77 78 75 81 85 72 71 69
33 47 62 73 90 90 88 90 86 83 86 79 52 39 17 34 63 26 23 30 25 26 26 29 31 34 36 36 37 37 40 46 55 70 78 80 80 80 88 100 86 80 77
74 80 70 85 88 86 87 91 82 82 86 78 64 58 24 41 63 43 32 23 19 22 27 29 28 28 28 29 30 33 34 42 52 55 63 69 71 82 89 100 94 81 79
75 72 63 75 77 81 86 75 85 92 92 86 83 73 35 46 50 32 30 31 24 23 24 27 27 25 25 28 30 31 34 37 39 45 51 51 52 80 94 100 97 88 89
72 70 68 79 82 70 62 82 86 89 85 85 63 50 36 31 41 36 38 31 26 24 24 26 26 24 27 28 31 34 37 37 41 47 48 48 51 60 90 94 100 100 85
76 71 84 65 64 86 84 76 69 58 56 53 42 48 39 38 45 39 39 32 29 28 27 28 28 27 28 31 34 36 37 40 45 48 49 54 56 61 89 96 100 100 79
75 78 82 92 82 82 66 62 48 45 44 46 54 49 52 54 48 39 38 33 32 32 31 32 31 31 32 34 36 39 44 48 50 53 54 58 65 73 89 94 100 100 76
78 67 76 83 85 69 77 64 40 53 61 62 52 50 63 62 52 40 37 33 34 36 34 34 35 34 34 36 37 45 50 51 54 55 60 68 78 81 95 99 100 100 74
89 89 85 82 78 71 58 66 72 71 60 55 53 66 72 69 52 41 36 35 39 38 38 41 40 38 39 38 41 48 51 53 57 57 60 74 87 93 97 100 100 91 84
92 94 88 89 83 78 73 71 66 65 60 61 62 68 61 50 47 42 37 39 42 42 44 46 45 43 42 43 47 52 55 58 59 59 62 71 84 96 100 99 88 100 100

GFSGL_850_rhum_153.txt.gz
RH
33 18 8 5 4 5 4 4 4 4 5 6 6 5 5 15 73 89 92 95 94 95 93 96 96 97 98 99 100 100 100 98 86 99 88 90 100 99 98 95 100 91 77
30 17 9 4 4 4 4 4 4 4 6 6 5 4 4 5 15 49 76 86 94 92 96 95 96 97 97 98 99 99 100 100 99 100 100 100 100 100 100 100 100 99 99
26 15 6 4 4 4 4 4 4 5 7 8 7 4 4 4 8 10 14 24 42 74 92 96 96 96 96 97 98 99 100 100 100 100 100 100 100 100 100 100 100 100 99
18 7 5 4 4 4 5 4 4 6 8 10 8 5 5 6 8 9 11 16 18 20 22 56 95 97 96 97 97 98 98 99 100 100 99 100 100 100 100 100 100 100 99
9 5 4 4 4 7 6 5 4 6 8 11 10 7 5 6 9 11 10 10 14 14 15 18 21 56 99 98 97 97 98 98 98 98 98 99 99 100 99 100 100 100 100
7 5 5 5 6 8 5 5 4 5 7 12 9 7 5 6 9 12 11 9 10 11 11 14 14 12 9 11 37 74 94 97 97 97 93 93 96 97 97 97 99 99 99
11 6 5 5 7 9 6 5 5 5 6 9 8 7 6 7 8 13 16 11 8 10 13 11 11 15 12 11 10 6 7 11 15 23 30 34 28 50 81 82 53 39 69
10 7 6 6 10 10 8 9 9 8 7 8 10 9 8 9 13 16 19 16 14 12 17 15 15 13 12 10 8 8 7 8 13 14 13 23 24 24 15 19 32 20 14
10 9 8 9 12 14 18 22 27 29 17 12 13 15 18 16 19 23 21 19 16 18 15 18 15 16 17 14 9 9 11 14 15 16 18 22 19 18 20 18 14 19 15
16 15 14 13 18 24 31 41 43 54 35 24 20 24 27 32 36 29 26 24 19 19 17 16 11 13 13 12 9 10 9 17 18 15 12 9 9 8 8 8 12 9 11
21 22 22 20 24 35 49 58 64 70 67 42 19 16 20 24 46 48 32 24 26 21 19 20 26 12 10 10 10 10 12 14 11 9 9 8 8 8 8 10 11 11 14
29 27 27 27 33 44 60 73 84 82 76 61 30 16 18 24 22 45 48 39 34 23 21 23 19 15 10 10 11 15 13 10 9 8 8 8 10 12 15 19 22 22 21
35 31 30 30 36 53 70 85 88 89 86 72 39 16 15 23 30 34 42 45 38 30 26 24 22 18 15 12 12 14 13 11 10 9 11 13 15 18 20 18 19 20 18
39 38 28 26 31 45 68 90 96 91 86 76 43 14 14 20 26 32 31 33 30 30 28 24 20 18 15 15 15 14 14 14 15 15 16 17 17 15 15 17 16 15 15
46 40 30 30 40 57 78 89 93 96 90 68 31 12 14 27 40 33 25 22 23 24 29 24 18 16 15 14 14 16 17 17 18 20 19 18 18 19 20 22 22 22 22
44 32 25 28 50 72 78 85 97 97 80 47 17 13 19 36 82 73 42 19 19 22 26 17 14 15 14 15 15 16 16 17 20 22 23 24 25 29 33 33 32 30 30
35 23 21 35 54 63 68 58 59 37 27 17 15 18 37 36 79 63 28 20 22 23 23 17 16 17 17 17 17 17 19 21 24 24 25 25 26 27 28 29 28 27 27
26 22 20 30 50 67 68 24 37 48 44 46 35 34 50 33 35 28 24 25 23 22 20 20 19 19 19 19 19 20 21 23 24 26 27 27 28 31 35 39 44 44 42
26 25 24 38 56 63 60 53 87 86 80 78 60 42 51 65 23 34 32 28 23 21 20 21 21 20 20 20 21 22 23 24 27 29 30 30 32 36 47 54 61 62 57
33 30 31 44 69 82 87 96 98 97 95 86 85 78 64 52 44 37 36 29 23 22 21 22 22 22 22 23 24 26 26 28 31 32 34 35 37 40 52 67 73 74 71
46 39 47 62 87 90 94 94 95 98 94 90 90 91 90 70 59 46 42 32 28 26 25 25 25 25 26 27 27 28 28 29 33 36 39 41 44 50 58 80 86 87 82
50 45 71 86 84 88 92 94 97 97 92 93 91 91 82 64 50 48 47 39 34 30 29 29 30 30 31 31 31 31 32 34 38 42 46 46 48 54 63 80 88 89 86
50 62 77 87 82 85 94 96 97 90 91 92 95 88 72 60 53 55 51 44 41 35 33 33 34 34 35 35 35 34 35 37 39 42 46 50 52 55 65 76 83 86 86
91 82 80 86 92 94 95 95 89 93 95 92 86 70 68 60 60 71 56 51 46 40 36 36 37 38 39 40 40 39 39 43 46 46 49 52 54 57 62 76 90 92 92
96 96 96 97 98 95 89 91 94 89 79 64 68 90 78 82 87 76 72 56 50 44 39 40 42 42 44 46 44 43 44 47 48 50 54 55 57 59 62 70 82 92 98
97 95 93 94 95 90 91 89 88 87 71 76 96 80 93 95 79 92 71 58 52 46 42 42 45 46 49 49 48 47 47 49 50 54 57 58 61 65 67 71 79 92 97

GFSGL_850_rhum_156.txt.gz
RH
43 36 20 12 6 5 4 4 4 4 6 5 4 3 3 4 6 13 19 49 81 92 94 100 100 100 98 98 99 99 100 100 97 99 100 100 100 100 97 97 98 86 97
43 32 21 12 5 4 4 4 4 5 7 8 5 4 4 4 5 7 10 12 20 53 91 94 100 100 99 98 98 99 100 99 100 100 100 100 100 100 100 100 98 100 100
43 32 20 9 5 4 4 4 4 7 8 11 7 4 4 4 5 6 9 12 15 24 40 90 96 98 100 97 98 98 99 100 100 100 100 100 100 100 100 100 100 98 93
42 30 15 6 4 4 5 4 6 8 10 11 9 5 5 5 6 7 8 10 11 13 15 20 79 100 99 98 97 97 98 100 99 99 99 100 100 100 100 99 100 100 100
40 24 9 5 4 5 6 5 6 7 10 12 10 6 6 6 6 8 7 8 8 10 10 11 15 37 97 100 97 97 98 98 98 98 97 98 98 99 99 100 99 100 100
35 16 7 5 5 6 6 5 5 7 9 12 9 6 6 7 7 10 10 7 7 8 9 10 12 13 12 15 52 87 96 97 97 97 97 96 97 97 98 99 99 98 96
32 15 7 5 6 8 6 5 5 5 9 10 8 7 6 8 10 12 14 11 8 8 9 9 9 12 12 12 13 9 11 19 25 36 42 38 35 55 64 36 45 86 92
32 21 7 6 7 10 8 6 7 7 10 12 13 11 10 13 15 15 17 16 10 9 10 11 9 9 10 12 10 9 8 9 14 16 17 22 21 20 19 26 22 13 16
35 20 9 8 11 15 12 13 19 24 16 13 16 19 20 20 24 23 24 20 14 11 10 10 10 10 11 13 8 8 9 12 13 13 14 16 15 16 17 13 13 21 10
38 15 10 12 16 19 24 30 36 39 27 20 19 21 22 34 46 30 26 23 16 13 12 9 8 8 9 8 8 9 8 13 12 10 8 8 7 7 6 6 7 6 8
30 16 15 17 19 27 36 44 55 60 55 34 17 16 23 28 48 22 24 26 19 15 12 11 10 8 8 7 7 8 10 13 9 8 7 7 7 6 7 7 7 7 8
28 20 21 21 23 32 42 53 64 73 72 56 28 16 25 32 30 34 16 17 23 17 13 13 11 10 9 9 9 10 11 10 9 8 8 8 9 10 12 13 13 13 13
28 26 27 28 31 42 50 60 73 77 79 73 47 18 18 27 32 25 20 19 19 19 14 13 12 12 11 11 10 11 10 9 9 8 9 11 13 15 16 14 14 15 14
32 31 30 30 35 47 66 86 84 85 85 80 67 28 14 20 19 23 26 23 20 20 18 15 13 13 12 12 12 11 11 11 11 11 13 14 15 13 12 13 13 13 12
42 37 36 36 38 47 64 83 88 96 100 97 77 32 17 23 29 29 21 20 19 18 18 17 16 15 14 14 13 13 14 14 14 15 15 15 16 17 17 18 17 16 15
51 45 42 34 38 52 63 73 94 100 99 93 62 20 24 43 70 70 29 20 18 19 23 18 15 15 16 15 15 16 16 16 17 18 18 18 19 20 22 25 26 26 26
58 52 45 41 42 49 67 78 82 94 97 91 47 18 49 91 100 80 26 22 22 22 23 19 17 16 16 17 18 18 17 18 19 20 21 22 24 27 29 33 35 35 35
63 62 49 34 34 50 64 69 72 66 44 30 29 42 81 86 98 59 32 27 27 23 22 20 19 19 20 20 20 20 20 21 22 22 24 26 27 28 32 37 39 39 39
71 63 39 29 37 55 70 71 35 40 59 53 48 45 78 76 54 39 34 30 25 23 23 22 21 22 22 22 22 22 22 23 24 26 28 30 32 33 36 42 49 53 52
74 49 31 30 43 67 83 76 44 85 89 83 79 66 59 52 50 48 38 37 30 25 24 22 23 24 24 24 25 25 26 27 29 31 33 34 37 39 41 47 56 60 63
58 40 35 41 54 69 73 71 65 97 95 93 92 89 88 84 75 62 46 42 34 30 26 26 25 26 26 27 28 29 29 29 30 33 35 38 41 44 46 51 62 72 75
51 45 42 44 54 74 84 93 96 99 100 100 97 97 93 92 73 58 51 46 39 32 29 28 28 29 30 31 32 32 32 31 33 37 40 42 44 47 50 55 67 79 86
65 65 54 51 64 85 96 97 100 99 99 100 97 96 91 86 65 69 54 50 43 46 33 31 32 33 34 35 36 35 35 36 37 38 43 46 48 50 53 58 68 82 91
65 50 51 69 85 93 92 94 96 96 95 95 95 95 94 80 69 64 84 79 95 56 39 35 35 36 38 40 40 40 40 40 42 42 43 47 52 54 57 61 67 76 85
89 86 83 86 90 94 95 98 97 95 93 94 90 88 78 81 84 91 92 94 77 55 45 40 40 40 42 44 45 45 45 45 46 45 47 51 55 58 59 63 67 72 80
93 93 94 95 96 97 100 98 92 95 94 93 73 71 93 95 96 96 92 96 77 55 49 45 43 44 47 48 48 50 50 51 49 49 52 56 58 60 62 64 69 75 81

GFSGL_850_rhum_162.txt.gz
RH
42 43 39 33 28 27 18 8 5 5 6 6 5 5 5 5 5 6 7 7 8 20 36 61 94 100 100 93 99 100 100 99 99 99 99 100 100 99 99 100 100 100 98
44 45 40 34 32 24 14 7 5 6 6 7 6 5 5 6 6 6 6 6 7 7 14 22 64 99 99 91 97 100 100 98 99 99 100 100 100 100 100 98 100 100 99
47 47 42 36 31 22 14 6 5 6 7 8 7 6 6 6 6 6 6 7 7 7 9 16 14 60 92 93 94 97 97 98 99 99 98 98 98 98 98 99 99 100 100
50 48 44 36 30 23 11 5 6 7 9 10 8 6 6 6 6 6 7 7 7 8 8 11 13 12 31 91 93 94 97 97 97 97 97 97 97 97 97 98 99 100 100
54 49 45 36 28 18 8 5 6 8 11 11 9 10 8 6 6 8 7 7 7 8 9 10 10 10 11 14 65 92 94 96 96 96 96 96 96 96 96 96 97 98 97
56 51 46 36 23 16 7 6 7 9 10 9 8 7 7 7 7 8 9 7 7 7 8 9 9 8 10 10 9 11 35 84 94 96 96 96 96 95 96 96 96 95 96
58 53 46 32 20 13 7 6 8 8 9 9 8 8 8 8 9 9 9 8 7 6 6 7 7 7 8 8 7 7 7 8 10 27 31 54 84 88 93 90 96 96 95
59 55 46 31 19 12 7 7 7 8 9 9 10 11 11 10 10 11 10 9 9 8 7 6 6 6 7 7 6 6 5 6 7 8 9 9 10 18 36 54 71 40 35
60 57 46 30 20 10 7 7 8 8 10 12 15 17 18 14 14 13 12 12 11 10 8 6 6 6 6 7 7 6 6 7 10 10 10 9 7 6 7 33 56 74 73
60 58 46 32 18 10 9 9 10 12 16 17 20 23 22 22 16 15 14 29 20 35 21 10 6 6 6 6 6 7 6 7 8 8 8 7 6 6 5 5 12 26 51
61 56 45 31 17 12 13 14 16 22 26 24 24 25 27 27 18 16 15 17 30 39 71 40 9 8 7 7 7 7 7 7 8 8 9 8 8 7 6 7 7 7 10
64 54 43 27 16 15 17 20 32 49 42 54 86 85 72 44 18 15 13 15 14 18 18 13 10 9 8 8 8 9 9 9 9 10 11 10 10 12 12 10 10 10 10
59 51 37 21 17 17 20 29 48 60 96 91 81 90 97 86 68 15 15 14 13 14 11 10 10 10 10 10 10 10 9 10 13 18 23 26 22 15 19 36 22 57 41
59 47 29 21 22 24 31 42 88 95 100 100 98 96 98 98 99 63 22 19 15 15 13 12 12 11 11 11 11 10 10 10 11 19 35 40 63 58 46 51 83 88 90
56 42 26 26 28 32 46 54 91 75 99 100 100 97 84 99 94 40 33 24 19 16 15 14 14 16 17 16 14 12 12 13 14 14 24 59 78 85 74 66 80 83 82
53 38 32 57 76 95 97 98 89 99 77 93 94 90 61 56 20 19 20 16 15 15 17 17 15 15 18 19 20 23 15 14 14 17 23 29 82 81 91 90 89 89 78
54 48 59 79 94 98 100 100 100 88 97 96 95 92 68 24 19 20 22 18 17 16 29 21 18 16 18 19 19 18 18 17 17 17 19 20 45 94 97 95 96 92 85
62 60 71 85 95 98 100 100 100 99 92 87 94 92 47 39 74 55 35 25 26 22 30 28 21 19 20 22 20 20 20 20 20 21 21 21 23 97 100 98 98 100 91
64 61 66 77 71 86 100 100 100 100 100 100 100 90 100 100 100 88 41 96 95 62 32 28 22 22 22 21 21 21 22 22 23 23 24 24 26 77 98 100 100 97 90
61 59 58 64 67 77 99 100 100 100 100 100 100 100 100 100 100 100 95 83 69 73 34 32 23 22 22 23 24 24 26 27 27 28 28 28 28 58 100 100 100 100 97
67 63 62 68 77 96 100 100 100 100 100 100 100 100 100 100 100 100 100 73 55 48 31 30 25 25 25 26 27 28 29 30 30 30 30 31 31 40 52 100 100 100 100
74 72 70 80 95 100 100 100 100 100 100 99 100 100 97 100 100 100 100 85 49 41 35 32 30 31 30 30 30 32 32 33 33 33 34 34 34 42 46 94 100 100 100
94 89 94 100 100 100 100 100 100 100 100 100 100 100 91 100 100 100 100 74 48 51 61 58 63 48 36 32 32 34 36 36 37 37 37 37 39 47 51 98 100 100 100
100 95 100 100 100 100 100 100 100 100 100 100 100 100 99 100 100 100 97 78 80 83 92 94 84 57 38 34 36 37 38 40 41 41 41 41 42 45 50 65 99 100 100
75 87 100 100 100 100 100 100 100 100 100 100 100 100 100 100 100 100 95 73 70 91 95 92 78 53 40 38 39 41 41 44 46 46 44 44 45 48 50 54 60 83 100
78 92 100 100 100 100 100 100 100 100 100 99 98 97 96 97 100 99 81 81 95 96 95 94 81 58 42 39 40 43 45 47 49 49 49 50 51 54 57 61 74 80 100

GFSGL_850_rhum_165.txt.gz
RH
36 39 38 38 36 30 28 22 13 7 6 6 6 6 6 6 6 6 6 8 12 28 34 28 50 98 100 100 100 100 100 100 100 99 99 99 98 99 100 100 99 98 98
38 39 38 41 38 33 29 22 16 6 7 7 6 6 6 6 6 6 6 7 8 10 16 12 18 58 97 100 100 100 100 99 99 99 98 98 98 97 99 99 98 99 100
40 36 39 42 38 34 28 22 8 7 8 8 7 6 6 7 7 7 7 8 8 8 10 7 10 12 53 94 100 100 98 99 98 96 96 96 96 96 97 97 96 99 100
37 41 42 43 41 34 26 13 7 9 11 11 9 7 7 7 7 8 9 12 12 10 11 7 8 9 9 28 90 99 100 100 100 99 98 96 96 96 96 96 96 95 97
41 45 44 45 41 30 19 10 13 15 20 26 23 21 20 9 7 9 9 10 12 18 17 14 7 8 9 7 9 65 96 100 100 100 99 98 96 97 96 95 95 96 96
49 47 47 47 40 27 16 15 14 11 10 10 12 13 14 8 7 8 11 8 9 12 11 10 8 9 13 7 6 8 12 48 74 98 99 100 97 96 97 96 96 96 95
52 52 50 48 38 26 16 17 8 8 8 8 9 9 10 9 8 9 8 9 7 7 7 7 6 6 7 9 7 6 6 6 7 12 12 23 42 61 92 92 91 95 94
57 55 51 49 38 22 18 12 8 7 8 9 10 11 12 11 10 10 10 12 11 9 8 7 6 6 6 6 6 6 6 6 6 6 6 6 7 20 37 80 88 81 29
57 56 53 50 38 25 17 9 7 7 9 12 13 17 18 12 10 12 17 26 18 14 8 7 6 6 6 6 7 6 6 8 9 8 7 7 6 5 9 34 74 90 72
62 58 55 51 37 26 16 9 8 10 11 14 18 22 21 16 11 12 19 97 78 55 32 9 6 6 6 6 7 7 8 10 16 25 19 14 7 6 5 6 16 40 71
64 61 58 50 36 25 14 10 11 17 26 27 22 23 24 22 17 12 16 65 95 99 99 34 8 7 7 7 7 7 7 16 31 37 25 19 18 13 8 7 7 7 9
67 65 60 49 39 23 13 27 60 93 89 88 88 66 55 39 19 12 13 15 19 63 71 19 9 8 8 8 8 8 8 16 38 59 53 31 15 18 27 17 17 20 12
67 64 60 47 37 24 17 24 80 97 99 99 98 99 100 100 57 15 13 13 14 30 14 10 10 10 10 10 10 9 11 50 84 91 91 82 48 28 36 78 85 98 90
66 64 54 44 32 24 27 32 94 99 100 100 99 100 100 100 100 45 18 15 14 13 12 12 11 12 13 14 24 19 18 18 50 90 100 97 96 92 87 84 87 88 91
65 59 50 38 27 27 69 84 100 100 100 100 100 100 100 100 100 100 83 74 42 28 14 17 50 82 96 92 70 28 23 42 51 61 83 98 96 93 88 86 87 84 82
65 56 53 63 74 69 96 98 100 100 100 100 100 100 100 100 100 77 35 27 22 16 19 94 88 79 88 93 92 93 40 22 24 36 58 71 96 93 94 92 91 88 79
65 66 74 91 96 99 99 100 100 99 100 94 100 100 99 70 55 28 18 18 17 16 75 100 100 99 81 78 74 67 54 18 21 28 50 36 86 100 96 92 96 95 85
74 69 79 88 92 94 98 100 100 100 99 82 94 98 96 83 40 21 26 21 22 22 97 100 100 77 74 78 70 65 49 34 27 34 38 38 36 100 100 98 96 100 95
74 76 86 91 94 94 95 95 96 100 100 100 100 99 94 76 97 56 55 80 99 94 85 78 84 64 56 43 29 23 22 22 22 28 59 51 47 100 100 100 100 99 88
77 77 80 96 100 100 100 96 97 100 100 100 100 100 100 100 100 100 72 95 100 99 92 82 71 54 50 35 32 27 40 46 44 57 46 56 45 99 100 100 100 100 94
93 81 87 100 100 100 100 100 100 100 100 100 100 97 96 100 100 100 100 100 100 100 100 94 75 40 30 29 34 58 39 75 34 33 47 54 32 65 100 100 100 100 100
98 87 99 100 100 100 100 98 98 98 98 99 100 99 94 100 100 100 100 100 100 100 100 97 54 41 38 44 45 76 53 42 55 47 54 33 36 99 100 100 100 100 100
100 100 100 100 100 100 96 96 98 98 98 96 99 99 100 100 96 99 100 99 100 98 55 43 56 66 65 48 38 45 85 76 44 34 35 36 46 100 90 100 100 100 100
100 99 100 100 97 97 95 95 96 96 98 100 94 98 100 100 97 95 98 100 94 83 81 82 90 89 79 57 38 33 34 35 36 36 38 38 43 79 71 100 100 100 100
99 100 100 98 98 95 94 98 99 99 100 100 99 95 100 100 100 99 100 100 97 84 65 81 91 86 74 49 39 37 34 40 41 43 43 43 44 46 58 60 100 100 100
99 100 100 98 96 96 98 95 97 98 100 95 93 94 97 100 100 100 100 100 91 74 89 92 90 88 76 52 38 36 40 43 45 47 46 48 51 68 94 93 100 100 100